QPF
0.00 0.00 0.01 0.03 0.06 0.07 0.09 0.09 0.04 0.01 0.01 0.02 0.02 0.02 0.02 0.01 0.00 0.00 0.00 0.00 0.00 0.00 0.00 0.00 0.00 0.00 0.00 0.00 0.00 0.00 0.00 0.00 0.00 0.00 0.00 0.00 0.00 0.00 0.00 0.00 0.00 0.00 0.00 0.00 0.00 0.00 0.00 0.00 0.00
0.00 0.00 0.00 0.03 0.08 0.10 0.06 0.03 0.02 0.00 0.01 0.02 0.04 0.04 0.01 0.01 0.00 0.00 0.00 0.00 0.00 0.00 0.00 0.00 0.00 0.00 0.00 0.00 0.00 0.00 0.00 0.00 0.00 0.00 0.00 0.00 0.00 0.00 0.00 0.00 0.00 0.00 0.00 0.00 0.00 0.00 0.00 0.00 0.00
0.00 0.00 0.00 0.03 0.09 0.09 0.03 0.02 0.01 0.00 0.01 0.02 0.04 0.02 0.01 0.00 0.00 0.00 0.00 0.00 0.00 0.00 0.00 0.00 0.00 0.00 0.00 0.00 0.00 0.00 0.00 0.00 0.00 0.00 0.00 0.00 0.00 0.00 0.00 0.00 0.00 0.00 0.00 0.00 0.00 0.00 0.00 0.00 0.00
0.00 0.00 0.00 0.01 0.03 0.02 0.02 0.01 0.00 0.01 0.00 0.01 0.01 0.01 0.00 0.00 0.00 0.00 0.00 0.00 0.00 0.00 0.00 0.00 0.00 0.00 0.00 0.00 0.00 0.00 0.00 0.00 0.00 0.00 0.00 0.00 0.00 0.00 0.00 0.00 0.00 0.00 0.00 0.00 0.00 0.00 0.00 0.00 0.00
0.00 0.00 0.00 0.00 0.00 0.00 0.00 0.00 0.00 0.00 0.00 0.00 0.00 0.01 0.01 0.00 0.00 0.00 0.00 0.00 0.00 0.00 0.00 0.00 0.00 0.00 0.00 0.00 0.00 0.00 0.00 0.00 0.00 0.00 0.00 0.00 0.00 0.00 0.00 0.00 0.00 0.00 0.00 0.00 0.00 0.00 0.00 0.00 0.00
0.00 0.00 0.00 0.00 0.00 0.00 0.00 0.00 0.00 0.00 0.00 0.01 0.01 0.01 0.01 0.01 0.00 0.00 0.00 0.00 0.00 0.00 0.00 0.00 0.00 0.00 0.00 0.00 0.00 0.00 0.00 0.00 0.00 0.00 0.00 0.00 0.01 0.01 0.00 0.00 0.00 0.00 0.00 0.00 0.00 0.00 0.00 0.00 0.00
0.00 0.00 0.00 0.00 0.00 0.00 0.00 0.00 0.00 0.00 0.00 0.01 0.02 0.02 0.02 0.02 0.01 0.01 0.01 0.00 0.00 0.00 0.00 0.00 0.00 0.00 0.00 0.00 0.00 0.00 0.00 0.00 0.00 0.00 0.00 0.00 0.00 0.00 0.00 0.00 0.00 0.00 0.00 0.00 0.00 0.00 0.00 0.00 0.00
0.00 0.00 0.00 0.00 0.00 0.00 0.00 0.00 0.00 0.00 0.00 0.01 0.04 0.04 0.04 0.03 0.01 0.02 0.01 0.01 0.00 0.00 0.00 0.00 0.00 0.00 0.00 0.00 0.00 0.00 0.00 0.00 0.00 0.00 0.00 0.00 0.00 0.00 0.00 0.00 0.00 0.01 0.01 0.01 0.01 0.00 0.00 0.00 0.00
0.00 0.00 0.00 0.00 0.00 0.00 0.00 0.00 0.00 0.00 0.01 0.03 0.07 0.11 0.05 0.04 0.02 0.02 0.02 0.02 0.01 0.00 0.00 0.00 0.00 0.00 0.00 0.00 0.00 0.00 0.00 0.00 0.00 0.00 0.00 0.00 0.00 0.00 0.00 0.00 0.01 0.01 0.02 0.02 0.02 0.01 0.01 0.00 0.00
0.00 0.00 0.00 0.00 0.00 0.00 0.00 0.00 0.00 0.00 0.01 0.04 0.13 0.18 0.07 0.05 0.05 0.03 0.03 0.05 0.04 0.01 0.01 0.01 0.00 0.00 0.00 0.00 0.00 0.00 0.00 0.00 0.00 0.00 0.00 0.00 0.00 0.00 0.00 0.00 0.04 0.05 0.06 0.06 0.05 0.05 0.04 0.02 0.01
0.00 0.00 0.00 0.00 0.00 0.00 0.00 0.00 0.00 0.00 0.01 0.05 0.06 0.05 0.06 0.07 0.09 0.06 0.06 0.09 0.05 0.03 0.02 0.03 0.02 0.01 0.01 0.01 0.01 0.01 0.01 0.02 0.01 0.01 0.02 0.02 0.02 0.02 0.03 0.04 0.08 0.12 0.16 0.15 0.14 0.12 0.09 0.06 0.04
0.00 0.00 0.00 0.00 0.00 0.00 0.00 0.00 0.00 0.01 0.01 0.02 0.01 0.02 0.06 0.08 0.06 0.06 0.10 0.13 0.09 0.05 0.04 0.05 0.04 0.04 0.04 0.05 0.05 0.06 0.06 0.07 0.07 0.07 0.07 0.09 0.09 0.08 0.08 0.10 0.14 0.20 0.26 0.33 0.35 0.27 0.20 0.15 0.11
0.00 0.00 0.00 0.00 0.00 0.00 0.00 0.00 0.00 0.01 0.01 0.01 0.01 0.01 0.02 0.04 0.07 0.08 0.11 0.13 0.13 0.08 0.07 0.09 0.10 0.08 0.08 0.10 0.10 0.09 0.09 0.08 0.08 0.09 0.11 0.16 0.21 0.19 0.16 0.16 0.23 0.29 0.33 0.37 0.37 0.32 0.31 0.29 0.23
0.00 0.00 0.00 0.00 0.00 0.00 0.00 0.00 0.00 0.01 0.01 0.01 0.01 0.02 0.04 0.06 0.08 0.09 0.10 0.11 0.13 0.12 0.12 0.13 0.13 0.12 0.13 0.16 0.17 0.15 0.12 0.10 0.09 0.10 0.12 0.14 0.18 0.19 0.19 0.24 0.24 0.21 0.23 0.24 0.26 0.35 0.41 0.43 0.35
0.00 0.00 0.00 0.00 0.00 0.00 0.00 0.01 0.01 0.02 0.02 0.01 0.02 0.03 0.04 0.08 0.13 0.11 0.12 0.14 0.16 0.17 0.18 0.18 0.19 0.17 0.16 0.17 0.16 0.11 0.11 0.11 0.11 0.11 0.10 0.10 0.10 0.11 0.11 0.10 0.09 0.07 0.07 0.10 0.15 0.19 0.26 0.33 0.30
0.00 0.00 0.00 0.00 0.00 0.00 0.01 0.02 0.02 0.03 0.04 0.02 0.02 0.02 0.03 0.04 0.07 0.08 0.08 0.09 0.11 0.12 0.14 0.16 0.16 0.18 0.19 0.19 0.20 0.12 0.10 0.09 0.10 0.08 0.08 0.07 0.06 0.06 0.05 0.04 0.04 0.04 0.03 0.03 0.07 0.11 0.15 0.21 0.24
0.00 0.00 0.00 0.00 0.01 0.01 0.02 0.05 0.05 0.07 0.06 0.04 0.03 0.03 0.03 0.03 0.03 0.04 0.05 0.06 0.07 0.08 0.09 0.11 0.11 0.11 0.10 0.10 0.09 0.07 0.07 0.07 0.06 0.06 0.06 0.05 0.04 0.05 0.04 0.04 0.03 0.02 0.03 0.03 0.07 0.13 0.18 0.19 0.20
0.01 0.01 0.02 0.02 0.02 0.02 0.07 0.09 0.10 0.09 0.08 0.08 0.06 0.03 0.02 0.02 0.02 0.02 0.03 0.03 0.03 0.04 0.05 0.05 0.04 0.04 0.04 0.03 0.02 0.03 0.04 0.05 0.04 0.03 0.02 0.02 0.02 0.02 0.02 0.02 0.02 0.02 0.03 0.06 0.09 0.11 0.16 0.16 0.17
0.02 0.02 0.03 0.04 0.03 0.06 0.15 0.21 0.20 0.18 0.20 0.19 0.16 0.08 0.02 0.02 0.01 0.01 0.01 0.01 0.02 0.02 0.02 0.02 0.02 0.01 0.01 0.01 0.01 0.01 0.01 0.02 0.02 0.02 0.02 0.02 0.02 0.02 0.02 0.01 0.02 0.01 0.02 0.03 0.05 0.08 0.09 0.10 0.14
0.04 0.04 0.06 0.07 0.05 0.07 0.17 0.37 0.44 0.44 0.28 0.22 0.16 0.11 0.04 0.03 0.01 0.01 0.01 0.01 0.01 0.01 0.01 0.00 0.00 0.00 0.00 0.00 0.00 0.00 0.00 0.00 0.00 0.01 0.01 0.01 0.02 0.02 0.02 0.01 0.01 0.01 0.01 0.01 0.02 0.04 0.05 0.08 0.12
0.06 0.06 0.07 0.06 0.08 0.12 0.22 0.36 0.55 0.55 0.32 0.18 0.11 0.06 0.05 0.02 0.00 0.00 0.00 0.00 0.00 0.00 0.00 0.00 0.00 0.00 0.00 0.00 0.00 0.00 0.00 0.00 0.00 0.00 0.01 0.01 0.01 0.01 0.01 0.01 0.01 0.01 0.01 0.01 0.02 0.02 0.05 0.07 0.09
0.02 0.02 0.03 0.03 0.05 0.11 0.21 0.35 0.53 0.48 0.34 0.22 0.11 0.05 0.03 0.01 0.00 0.00 0.00 0.00 0.00 0.00 0.00 0.00 0.00 0.00 0.00 0.00 0.00 0.00 0.00 0.00 0.00 0.00 0.00 0.00 0.00 0.00 0.00 0.00 0.00 0.00 0.01 0.01 0.01 0.02 0.04 0.05 0.06
0.02 0.01 0.02 0.03 0.03 0.05 0.12 0.24 0.39 0.36 0.37 0.26 0.10 0.05 0.02 0.01 0.00 0.00 0.00 0.00 0.00 0.00 0.00 0.00 0.00 0.00 0.01 0.01 0.00 0.00 0.00 0.00 0.00 0.00 0.00 0.00 0.00 0.00 0.00 0.00 0.00 0.00 0.00 0.01 0.01 0.02 0.02 0.04 0.05
0.01 0.02 0.03 0.04 0.04 0.07 0.06 0.12 0.21 0.19 0.22 0.20 0.09 0.04 0.01 0.00 0.00 0.00 0.00 0.00 0.00 0.00 0.00 0.00 0.00 0.00 0.00 0.00 0.00 0.00 0.00 0.00 0.00 0.00 0.00 0.00 0.00 0.00 0.00 0.00 0.00 0.00 0.00 0.00 0.01 0.01 0.02 0.03 0.03
0.01 0.02 0.03 0.03 0.06 0.09 0.05 0.15 0.23 0.14 0.15 0.15 0.09 0.02 0.01 0.00 0.00 0.00 0.00 0.00 0.00 0.00 0.00 0.00 0.00 0.00 0.00 0.00 0.00 0.00 0.00 0.00 0.00 0.00 0.00 0.00 0.00 0.00 0.00 0.00 0.00 0.00 0.00 0.00 0.00 0.00 0.00 0.01 0.02
0.00 0.01 0.01 0.02 0.04 0.10 0.17 0.40 0.35 0.10 0.07 0.06 0.04 0.01 0.01 0.00 0.00 0.00 0.00 0.00 0.00 0.00 0.00 0.00 0.00 0.00 0.00 0.00 0.00 0.00 0.00 0.00 0.00 0.00 0.00 0.00 0.00 0.00 0.00 0.00 0.00 0.00 0.00 0.00 0.00 0.00 0.00 0.00 0.01
0.00 0.00 0.00 0.00 0.02 0.07 0.19 0.31 0.23 0.05 0.02 0.01 0.01 0.00 0.00 0.00 0.00 0.00 0.00 0.00 0.00 0.00 0.00 0.00 0.00 0.00 0.00 0.00 0.00 0.00 0.00 0.00 0.00 0.00 0.00 0.00 0.00 0.00 0.00 0.00 0.00 0.00 0.00 0.00 0.00 0.00 0.00 0.00 0.01
0.00 0.00 0.00 0.00 0.00 0.02 0.12 0.17 0.10 0.02 0.00 0.00 0.00 0.00 0.00 0.00 0.00 0.00 0.00 0.00 0.00 0.00 0.00 0.00 0.00 0.00 0.00 0.00 0.00 0.00 0.00 0.00 0.00 0.00 0.00 0.00 0.00 0.00 0.00 0.00 0.00 0.00 0.00 0.00 0.01 0.01 0.00 0.00 0.00
0.00 0.00 0.00 0.00 0.00 0.00 0.04 0.05 0.01 0.00 0.00 0.00 0.00 0.00 0.00 0.00 0.00 0.00 0.00 0.00 0.00 0.00 0.00 0.00 0.00 0.00 0.00 0.00 0.00 0.00 0.00 0.00 0.00 0.00 0.00 0.00 0.00 0.00 0.00 0.00 0.00 0.00 0.00 0.00 0.00 0.00 0.01 0.01 0.00
0.00 0.00 0.00 0.00 0.00 0.00 0.00 0.01 0.00 0.00 0.00 0.00 0.00 0.00 0.00 0.00 0.00 0.00 0.00 0.00 0.00 0.00 0.00 0.00 0.00 0.00 0.00 0.00 0.00 0.00 0.00 0.00 0.00 0.00 0.00 0.00 0.00 0.00 0.00 0.00 0.00 0.00 0.00 0.00 0.00 0.00 0.01 0.01 0.01
MSLP
1011.32 1012.41 1013.52 1014.45 1015.01 1015.07 1014.60 1013.66 1012.43 1011.12 1009.97 1009.16 1008.78 1008.83 1009.22 1009.81 1010.41 1010.87 1011.11 1011.12 1010.96 1010.73 1010.55 1010.51 1010.66 1011.00 1011.47 1011.99 1012.48 1012.90 1013.22 1013.45 1013.64 1013.83 1014.05 1014.31 1014.60 1014.89 1015.15 1015.34 1015.45 1015.51 1015.53 1015.56 1015.61 1015.70 1015.83 1015.96 1016.08
1011.84 1013.02 1014.10 1014.88 1015.18 1014.92 1014.12 1012.90 1011.46 1010.05 1008.88 1008.13 1007.86 1008.04 1008.55 1009.23 1009.91 1010.42 1010.72 1010.78 1010.70 1010.55 1010.47 1010.52 1010.74 1011.13 1011.62 1012.13 1012.61 1013.01 1013.31 1013.54 1013.74 1013.94 1014.17 1014.43 1014.71 1014.97 1015.19 1015.34 1015.42 1015.46 1015.48 1015.51 1015.58 1015.69 1015.83 1015.98 1016.10
1012.36 1013.56 1014.55 1015.12 1015.14 1014.57 1013.48 1012.04 1010.46 1009.01 1007.90 1007.27 1007.14 1007.47 1008.10 1008.87 1009.60 1010.15 1010.48 1010.60 1010.58 1010.52 1010.52 1010.66 1010.94 1011.36 1011.84 1012.33 1012.76 1013.12 1013.38 1013.59 1013.77 1013.97 1014.20 1014.45 1014.70 1014.94 1015.12 1015.24 1015.30 1015.34 1015.37 1015.43 1015.53 1015.67 1015.84 1015.99 1016.13
1012.86 1014.01 1014.85 1015.18 1014.92 1014.09 1012.78 1011.20 1009.58 1008.19 1007.21 1006.73 1006.77 1007.23 1007.96 1008.78 1009.53 1010.09 1010.44 1010.59 1010.63 1010.65 1010.73 1010.92 1011.25 1011.67 1012.12 1012.56 1012.92 1013.21 1013.42 1013.58 1013.74 1013.92 1014.13 1014.37 1014.61 1014.82 1014.98 1015.08 1015.15 1015.20 1015.25 1015.35 1015.49 1015.67 1015.86 1016.04 1016.18
1013.33 1014.37 1015.01 1015.10 1014.60 1013.56 1012.13 1010.51 1008.96 1007.70 1006.89 1006.60 1006.79 1007.35 1008.13 1008.96 1009.68 1010.22 1010.55 1010.72 1010.80 1010.88 1011.03 1011.28 1011.62 1012.02 1012.43 1012.78 1013.06 1013.26 1013.39 1013.51 1013.64 1013.80 1014.01 1014.24 1014.47 1014.67 1014.83 1014.93 1015.00 1015.07 1015.16 1015.29 1015.47 1015.68 1015.90 1016.10 1016.25
1013.76 1014.63 1015.05 1014.91 1014.22 1013.06 1011.60 1010.05 1008.64 1007.58 1006.98 1006.87 1007.18 1007.80 1008.57 1009.34 1009.99 1010.46 1010.75 1010.91 1011.03 1011.16 1011.36 1011.64 1011.99 1012.36 1012.69 1012.96 1013.14 1013.25 1013.32 1013.38 1013.49 1013.65 1013.87 1014.11 1014.34 1014.55 1014.70 1014.80 1014.88 1014.96 1015.08 1015.24 1015.45 1015.68 1015.93 1016.14 1016.31
1014.08 1014.75 1014.94 1014.62 1013.80 1012.61 1011.21 1009.82 1008.62 1007.80 1007.41 1007.45 1007.83 1008.45 1009.15 1009.80 1010.33 1010.70 1010.93 1011.07 1011.21 1011.39 1011.63 1011.95 1012.29 1012.62 1012.88 1013.06 1013.15 1013.18 1013.20 1013.24 1013.35 1013.52 1013.76 1014.02 1014.27 1014.48 1014.63 1014.73 1014.80 1014.88 1015.00 1015.17 1015.39 1015.64 1015.89 1016.12 1016.30
1014.25 1014.69 1014.68 1014.20 1013.33 1012.17 1010.92 1009.74 1008.80 1008.22 1008.03 1008.18 1008.59 1009.15 1009.72 1010.23 1010.61 1010.86 1011.02 1011.15 1011.30 1011.52 1011.81 1012.15 1012.48 1012.77 1012.97 1013.07 1013.10 1013.07 1013.06 1013.10 1013.23 1013.43 1013.70 1013.99 1014.25 1014.46 1014.60 1014.69 1014.74 1014.79 1014.89 1015.04 1015.25 1015.50 1015.75 1015.99 1016.18
1014.18 1014.41 1014.22 1013.65 1012.78 1011.73 1010.67 1009.75 1009.07 1008.73 1008.70 1008.92 1009.32 1009.78 1010.20 1010.54 1010.77 1010.90 1011.00 1011.12 1011.30 1011.56 1011.89 1012.24 1012.57 1012.82 1012.97 1013.01 1012.99 1012.94 1012.92 1012.99 1013.15 1013.40 1013.70 1014.01 1014.29 1014.48 1014.60 1014.64 1014.65 1014.66 1014.72 1014.83 1015.01 1015.24 1015.49 1015.72 1015.93
1013.87 1013.91 1013.59 1012.97 1012.15 1011.26 1010.43 1009.77 1009.35 1009.21 1009.31 1009.58 1009.93 1010.28 1010.55 1010.73 1010.82 1010.87 1010.93 1011.05 1011.26 1011.55 1011.91 1012.27 1012.58 1012.79 1012.90 1012.91 1012.86 1012.80 1012.81 1012.90 1013.11 1013.40 1013.73 1014.06 1014.32 1014.50 1014.58 1014.57 1014.52 1014.48 1014.48 1014.55 1014.69 1014.88 1015.11 1015.34 1015.55
1013.35 1013.24 1012.84 1012.23 1011.50 1010.79 1010.19 1009.79 1009.60 1009.64 1009.84 1010.12 1010.42 1010.65 1010.80 1010.86 1010.86 1010.85 1010.89 1011.02 1011.25 1011.57 1011.93 1012.28 1012.56 1012.74 1012.80 1012.78 1012.72 1012.68 1012.71 1012.85 1013.09 1013.41 1013.76 1014.08 1014.33 1014.47 1014.50 1014.44 1014.34 1014.25 1014.20 1014.22 1014.31 1014.47 1014.67 1014.88 1015.08
1012.75 1012.54 1012.10 1011.53 1010.94 1010.42 1010.04 1009.86 1009.87 1010.04 1010.31 1010.59 1010.83 1010.98 1011.04 1011.02 1010.96 1010.93 1010.97 1011.12 1011.36 1011.67 1012.02 1012.33 1012.56 1012.69 1012.71 1012.67 1012.61 1012.59 1012.64 1012.81 1013.07 1013.40 1013.75 1014.05 1014.26 1014.37 1014.36 1014.26 1014.12 1013.99 1013.90 1013.89 1013.94 1014.07 1014.23 1014.42 1014.59
1012.22 1011.96 1011.53 1011.04 1010.59 1010.25 1010.08 1010.08 1010.24 1010.50 1010.79 1011.06 1011.25 1011.35 1011.35 1011.30 1011.23 1011.21 1011.26 1011.41 1011.64 1011.92 1012.21 1012.45 1012.61 1012.67 1012.66 1012.60 1012.54 1012.53 1012.61 1012.79 1013.05 1013.37 1013.68 1013.95 1014.12 1014.18 1014.14 1014.03 1013.88 1013.74 1013.65 1013.61 1013.65 1013.73 1013.86 1014.00 1014.14
1011.95 1011.68 1011.30 1010.92 1010.61 1010.44 1010.42 1010.55 1010.79 1011.08 1011.37 1011.61 1011.76 1011.81 1011.80 1011.75 1011.70 1011.70 1011.76 1011.90 1012.09 1012.30 1012.50 1012.64 1012.71 1012.70 1012.64 1012.56 1012.51 1012.52 1012.61 1012.79 1013.03 1013.31 1013.57 1013.78 1013.91 1013.94 1013.89 1013.78 1013.66 1013.54 1013.46 1013.43 1013.45 1013.51 1013.59 1013.68 1013.77
1012.03 1011.79 1011.50 1011.24 1011.06 1011.02 1011.11 1011.31 1011.57 1011.84 1012.08 1012.26 1012.36 1012.39 1012.37 1012.34 1012.32 1012.34 1012.41 1012.51 1012.64 1012.75 1012.83 1012.86 1012.83 1012.75 1012.66 1012.58 1012.54 1012.56 1012.66 1012.83 1013.03 1013.25 1013.45 1013.59 1013.66 1013.67 1013.62 1013.55 1013.46 1013.40 1013.36 1013.36 1013.38 1013.41 1013.44 1013.47 1013.48
1012.46 1012.30 1012.12 1011.99 1011.94 1011.99 1012.14 1012.34 1012.56 1012.75 1012.90 1012.98 1013.01 1013.01 1012.99 1012.98 1013.00 1013.04 1013.09 1013.15 1013.19 1013.19 1013.14 1013.05 1012.93 1012.80 1012.69 1012.62 1012.61 1012.66 1012.77 1012.92 1013.08 1013.23 1013.34 1013.41 1013.43 1013.41 1013.37 1013.34 1013.31 1013.31 1013.32 1013.35 1013.37 1013.38 1013.36 1013.32 1013.27
1013.14 1013.10 1013.05 1013.06 1013.13 1013.25 1013.41 1013.56 1013.67 1013.73 1013.73 1013.68 1013.62 1013.57 1013.54 1013.55 1013.58 1013.63 1013.67 1013.68 1013.63 1013.52 1013.36 1013.17 1012.99 1012.83 1012.73 1012.70 1012.74 1012.83 1012.96 1013.09 1013.20 1013.27 1013.30 1013.28 1013.24 1013.19 1013.16 1013.16 1013.19 1013.24 1013.31 1013.36 1013.38 1013.37 1013.31 1013.21 1013.10
1013.89 1013.99 1014.11 1014.27 1014.46 1014.63 1014.77 1014.83 1014.79 1014.66 1014.47 1014.26 1014.08 1013.95 1013.89 1013.91 1013.97 1014.03 1014.06 1014.02 1013.90 1013.70 1013.46 1013.20 1012.98 1012.83 1012.77 1012.80 1012.90 1013.05 1013.21 1013.33 1013.40 1013.39 1013.33 1013.22 1013.12 1013.03 1012.99 1013.01 1013.07 1013.16 1013.26 1013.33 1013.35 1013.31 1013.22 1013.08 1012.93
1014.50 1014.78 1015.10 1015.43 1015.74 1015.97 1016.07 1016.01 1015.79 1015.44 1015.03 1014.63 1014.30 1014.08 1013.98 1014.00 1014.08 1014.16 1014.19 1014.14 1013.98 1013.73 1013.44 1013.15 1012.93 1012.81 1012.81 1012.92 1013.10 1013.32 1013.51 1013.63 1013.65 1013.57 1013.42 1013.24 1013.05 1012.92 1012.85 1012.86 1012.93 1013.04 1013.14 1013.21 1013.22 1013.17 1013.05 1012.90 1012.73
1014.79 1015.29 1015.83 1016.37 1016.82 1017.11 1017.18 1017.00 1016.59 1016.02 1015.38 1014.77 1014.28 1013.95 1013.81 1013.83 1013.94 1014.06 1014.11 1014.07 1013.91 1013.65 1013.35 1013.06 1012.86 1012.79 1012.86 1013.05 1013.32 1013.59 1013.81 1013.93 1013.92 1013.78 1013.56 1013.29 1013.03 1012.83 1012.72 1012.70 1012.76 1012.85 1012.94 1013.00 1012.99 1012.92 1012.80 1012.65 1012.50
1014.71 1015.43 1016.23 1016.99 1017.62 1017.99 1018.05 1017.76 1017.18 1016.39 1015.53 1014.71 1014.06 1013.64 1013.45 1013.47 1013.62 1013.79 1013.91 1013.91 1013.78 1013.55 1013.27 1013.01 1012.85 1012.82 1012.95 1013.20 1013.52 1013.83 1014.08 1014.19 1014.15 1013.96 1013.68 1013.34 1013.02 1012.76 1012.60 1012.53 1012.55 1012.60 1012.66 1012.69 1012.67 1012.59 1012.48 1012.36 1012.26
1014.29 1015.26 1016.32 1017.33 1018.14 1018.62 1018.69 1018.33 1017.60 1016.62 1015.56 1014.56 1013.77 1013.25 1013.04 1013.07 1013.26 1013.50 1013.70 1013.77 1013.70 1013.51 1013.27 1013.04 1012.91 1012.91 1013.07 1013.34 1013.68 1014.01 1014.26 1014.36 1014.29 1014.07 1013.74 1013.36 1012.99 1012.68 1012.47 1012.35 1012.31 1012.32 1012.34 1012.33 1012.29 1012.22 1012.13 1012.05 1012.02
1013.68 1014.89 1016.20 1017.46 1018.46 1019.06 1019.16 1018.76 1017.93 1016.81 1015.58 1014.44 1013.53 1012.94 1012.70 1012.75 1012.99 1013.31 1013.58 1013.73 1013.74 1013.60 1013.40 1013.19 1013.06 1013.06 1013.21 1013.47 1013.79 1014.09 1014.31 1014.39 1014.31 1014.07 1013.72 1013.32 1012.92 1012.58 1012.32 1012.16 1012.07 1012.03 1012.01 1011.97 1011.92 1011.85 1011.79 1011.76 1011.79
1013.09 1014.49 1016.03 1017.49 1018.66 1019.38 1019.53 1019.12 1018.23 1017.01 1015.68 1014.43 1013.44 1012.80 1012.54 1012.61 1012.90 1013.28 1013.63 1013.85 1013.91 1013.82 1013.64 1013.44 1013.29 1013.25 1013.34 1013.55 1013.81 1014.06 1014.24 1014.29 1014.19 1013.94 1013.59 1013.19 1012.80 1012.45 1012.17 1011.98 1011.85 1011.77 1011.70 1011.64 1011.57 1011.51 1011.48 1011.50 1011.59
1012.67 1014.21 1015.90 1017.51 1018.82 1019.62 1019.83 1019.43 1018.52 1017.25 1015.87 1014.57 1013.53 1012.87 1012.60 1012.68 1013.00 1013.42 1013.82 1014.09 1014.19 1014.13 1013.95 1013.73 1013.54 1013.44 1013.45 1013.57 1013.74 1013.92 1014.04 1014.05 1013.94 1013.70 1013.37 1013.00 1012.62 1012.29 1012.01 1011.81 1011.65 1011.54 1011.44 1011.35 1011.27 1011.22 1011.21 1011.26 1011.39
1012.51 1014.11 1015.87 1017.55 1018.92 1019.78 1020.02 1019.65 1018.75 1017.50 1016.11 1014.81 1013.78 1013.11 1012.85 1012.93 1013.26 1013.69 1014.10 1014.39 1014.50 1014.45 1014.25 1014.00 1013.75 1013.57 1013.49 1013.51 1013.59 1013.68 1013.73 1013.71 1013.59 1013.37 1013.08 1012.74 1012.41 1012.10 1011.84 1011.63 1011.46 1011.32 1011.20 1011.09 1011.00 1010.94 1010.94 1011.02 1011.17
1012.59 1014.16 1015.91 1017.57 1018.92 1019.78 1020.04 1019.70 1018.85 1017.65 1016.32 1015.08 1014.09 1013.45 1013.19 1013.26 1013.58 1013.99 1014.38 1014.65 1014.75 1014.67 1014.46 1014.16 1013.86 1013.61 1013.45 1013.37 1013.36 1013.37 1013.37 1013.31 1013.18 1012.98 1012.73 1012.44 1012.15 1011.88 1011.65 1011.44 1011.26 1011.11 1010.96 1010.83 1010.73 1010.66 1010.66 1010.74 1010.89
1012.83 1014.29 1015.92 1017.47 1018.73 1019.53 1019.78 1019.48 1018.70 1017.61 1016.40 1015.26 1014.36 1013.77 1013.53 1013.59 1013.87 1014.23 1014.56 1014.78 1014.84 1014.73 1014.49 1014.17 1013.83 1013.53 1013.31 1013.16 1013.07 1013.02 1012.97 1012.88 1012.75 1012.57 1012.35 1012.10 1011.85 1011.62 1011.40 1011.20 1011.02 1010.85 1010.69 1010.54 1010.42 1010.34 1010.32 1010.39 1010.53
1013.09 1014.37 1015.80 1017.16 1018.26 1018.96 1019.18 1018.92 1018.24 1017.30 1016.25 1015.28 1014.50 1014.00 1013.79 1013.83 1014.05 1014.33 1014.59 1014.74 1014.74 1014.59 1014.32 1013.99 1013.64 1013.32 1013.07 1012.88 1012.75 1012.66 1012.57 1012.46 1012.32 1012.14 1011.94 1011.73 1011.51 1011.29 1011.09 1010.90 1010.71 1010.52 1010.34 1010.18 1010.04 1009.94 1009.91 1009.96 1010.07
1013.26 1014.31 1015.48 1016.60 1017.50 1018.07 1018.25 1018.03 1017.48 1016.71 1015.87 1015.09 1014.47 1014.08 1013.91 1013.94 1014.10 1014.29 1014.45 1014.51 1014.44 1014.26 1013.98 1013.65 1013.31 1013.01 1012.76 1012.56 1012.42 1012.30 1012.18 1012.05 1011.89 1011.71 1011.51 1011.31 1011.10 1010.90 1010.70 1010.50 1010.31 1010.11 1009.92 1009.74 1009.58 1009.47 1009.43 1009.45 1009.54
Thickness
5831 5827 5823 5811 5789 5776 5779 5807 5830 5837 5846 5858 5862 5855 5842 5834 5824 5812 5835 5843 5838 5831 5826 5822 5820 5818 5815 5812 5808 5805 5801 5798 5795 5793 5790 5788 5786 5784 5782 5780 5778 5776 5774 5772 5770 5768 5766 5765 5763
5831 5826 5815 5798 5779 5771 5788 5820 5830 5841 5853 5861 5860 5854 5844 5836 5839 5833 5835 5836 5835 5830 5825 5821 5818 5815 5813 5810 5806 5803 5800 5797 5794 5791 5789 5787 5784 5782 5780 5779 5777 5775 5773 5772 5770 5768 5766 5764 5762
5831 5826 5802 5786 5779 5780 5799 5829 5839 5852 5863 5861 5851 5850 5844 5837 5840 5835 5835 5834 5830 5826 5822 5819 5816 5813 5811 5808 5805 5802 5799 5796 5793 5790 5788 5785 5783 5781 5779 5777 5775 5774 5772 5770 5769 5767 5765 5763 5762
5827 5810 5797 5782 5781 5802 5819 5838 5850 5850 5857 5859 5850 5837 5842 5850 5846 5839 5834 5831 5826 5822 5819 5816 5814 5811 5808 5806 5803 5800 5797 5795 5792 5789 5786 5783 5781 5779 5777 5775 5773 5771 5770 5768 5767 5765 5764 5762 5761
5821 5799 5782 5776 5790 5817 5838 5851 5854 5847 5847 5848 5846 5828 5827 5842 5846 5838 5832 5827 5823 5819 5816 5814 5811 5808 5806 5803 5801 5798 5795 5792 5789 5787 5784 5781 5779 5777 5774 5773 5771 5769 5767 5766 5764 5762 5761 5760 5759
5805 5794 5775 5772 5794 5821 5841 5855 5853 5845 5841 5842 5838 5825 5821 5834 5834 5830 5828 5823 5820 5817 5813 5810 5808 5805 5803 5800 5798 5795 5792 5789 5787 5784 5781 5779 5777 5774 5772 5770 5768 5767 5765 5763 5761 5760 5758 5757 5756
5798 5788 5779 5786 5794 5811 5835 5851 5845 5838 5835 5839 5841 5820 5819 5826 5830 5829 5824 5819 5816 5813 5810 5807 5804 5802 5799 5797 5794 5792 5789 5787 5784 5781 5779 5776 5774 5772 5770 5767 5765 5764 5762 5760 5758 5756 5755 5753 5752
5810 5790 5781 5783 5790 5803 5828 5838 5840 5838 5833 5845 5842 5818 5812 5825 5830 5826 5819 5813 5810 5808 5806 5803 5800 5798 5795 5793 5791 5788 5786 5783 5781 5778 5776 5773 5771 5769 5767 5764 5762 5760 5758 5757 5755 5753 5751 5749 5749
5815 5780 5768 5780 5790 5801 5822 5823 5830 5839 5834 5835 5837 5832 5830 5831 5827 5818 5811 5804 5801 5800 5799 5798 5796 5794 5791 5789 5787 5784 5782 5780 5778 5775 5773 5770 5767 5765 5763 5761 5758 5756 5755 5753 5751 5749 5747 5746 5744
5795 5769 5779 5799 5806 5806 5816 5818 5820 5817 5814 5815 5820 5826 5829 5825 5818 5810 5803 5798 5796 5794 5794 5794 5792 5789 5787 5785 5783 5780 5778 5776 5774 5772 5769 5766 5764 5761 5759 5757 5755 5753 5751 5749 5747 5745 5743 5741 5740
5793 5784 5798 5808 5815 5814 5810 5811 5817 5806 5795 5802 5806 5810 5814 5812 5807 5803 5799 5797 5796 5795 5793 5791 5789 5786 5783 5781 5779 5776 5774 5771 5769 5767 5765 5762 5760 5757 5754 5751 5750 5749 5747 5745 5743 5740 5738 5737 5736
5791 5797 5805 5810 5816 5812 5808 5806 5802 5800 5796 5805 5806 5806 5803 5798 5794 5793 5790 5790 5790 5790 5789 5788 5786 5782 5779 5777 5774 5771 5769 5767 5765 5763 5761 5758 5755 5752 5749 5746 5746 5745 5743 5741 5738 5736 5735 5733 5732
5786 5793 5805 5810 5811 5810 5807 5799 5794 5789 5797 5800 5799 5795 5790 5786 5784 5783 5783 5782 5782 5781 5782 5781 5780 5777 5774 5771 5768 5766 5765 5763 5761 5759 5757 5755 5751 5748 5745 5742 5740 5739 5739 5736 5734 5733 5731 5729 5728
5788 5794 5798 5802 5804 5804 5797 5790 5785 5777 5788 5787 5783 5779 5777 5775 5775 5774 5773 5771 5772 5772 5772 5773 5772 5769 5767 5763 5760 5760 5758 5756 5755 5753 5750 5749 5746 5742 5740 5737 5735 5733 5732 5731 5729 5728 5727 5726 5726
5793 5784 5785 5790 5795 5794 5791 5768 5768 5773 5776 5772 5770 5769 5768 5767 5767 5765 5765 5764 5764 5763 5763 5763 5762 5760 5758 5755 5753 5752 5750 5748 5747 5745 5743 5741 5738 5736 5734 5731 5729 5727 5725 5724 5724 5723 5723 5722 5721
5778 5766 5757 5776 5785 5789 5775 5743 5758 5768 5766 5760 5761 5760 5759 5757 5758 5758 5759 5758 5758 5756 5755 5755 5755 5752 5750 5746 5745 5744 5743 5740 5738 5736 5734 5732 5730 5728 5726 5724 5722 5721 5719 5718 5717 5717 5717 5716 5716
5750 5741 5746 5761 5777 5779 5763 5741 5751 5760 5758 5752 5752 5752 5751 5749 5750 5751 5752 5751 5751 5749 5747 5746 5746 5743 5741 5740 5739 5737 5734 5732 5729 5727 5725 5723 5721 5720 5718 5715 5714 5712 5711 5710 5710 5711 5710 5710 5710
5734 5737 5742 5745 5760 5760 5746 5735 5739 5746 5747 5744 5745 5745 5744 5743 5744 5746 5747 5746 5745 5743 5742 5739 5738 5736 5735 5733 5730 5727 5724 5722 5720 5718 5717 5715 5713 5711 5709 5707 5705 5704 5703 5702 5702 5702 5703 5704 5705
5751 5745 5738 5742 5752 5743 5731 5724 5726 5734 5737 5736 5738 5738 5739 5739 5742 5743 5742 5742 5740 5737 5735 5732 5729 5727 5726 5722 5718 5714 5711 5710 5709 5708 5707 5705 5703 5701 5699 5698 5696 5695 5694 5694 5694 5694 5695 5696 5698
5751 5740 5736 5738 5747 5737 5723 5715 5721 5727 5728 5732 5734 5735 5735 5734 5735 5737 5737 5737 5735 5732 5730 5727 5724 5721 5718 5714 5710 5706 5703 5700 5698 5697 5695 5693 5692 5690 5689 5688 5686 5686 5685 5684 5685 5685 5686 5688 5690
5746 5738 5736 5731 5735 5733 5718 5702 5708 5717 5723 5730 5736 5735 5734 5733 5732 5733 5733 5733 5731 5729 5726 5724 5719 5716 5712 5707 5702 5698 5694 5690 5687 5685 5684 5683 5682 5680 5679 5679 5678 5677 5676 5675 5675 5676 5676 5678 5681
5743 5757 5751 5739 5722 5704 5709 5686 5700 5708 5712 5723 5730 5732 5732 5734 5734 5732 5731 5730 5728 5727 5725 5720 5715 5710 5706 5701 5694 5688 5681 5676 5675 5674 5673 5673 5672 5671 5670 5670 5669 5669 5668 5668 5667 5668 5669 5670 5671
5756 5763 5752 5738 5716 5701 5701 5690 5694 5704 5706 5718 5727 5732 5733 5734 5734 5732 5732 5730 5728 5725 5720 5714 5709 5704 5699 5694 5688 5681 5675 5671 5668 5666 5664 5664 5663 5662 5662 5661 5661 5660 5660 5659 5660 5660 5660 5661 5663
5768 5752 5735 5721 5707 5687 5694 5690 5690 5700 5709 5719 5727 5732 5733 5734 5733 5731 5729 5726 5721 5717 5712 5706 5700 5695 5691 5685 5680 5674 5669 5664 5660 5657 5655 5653 5653 5653 5653 5653 5652 5652 5651 5651 5652 5652 5652 5653 5654
5760 5731 5705 5698 5685 5682 5696 5693 5695 5717 5724 5725 5727 5729 5731 5730 5727 5723 5720 5716 5711 5707 5702 5697 5690 5685 5681 5676 5671 5666 5662 5657 5653 5649 5646 5644 5643 5643 5643 5643 5643 5642 5643 5643 5644 5645 5645 5646 5647
5760 5740 5711 5697 5685 5682 5692 5691 5706 5728 5733 5733 5731 5728 5727 5724 5721 5718 5714 5708 5704 5700 5694 5688 5682 5677 5672 5668 5663 5659 5655 5650 5646 5643 5640 5637 5635 5635 5635 5635 5634 5634 5634 5635 5636 5637 5638 5639 5640
5760 5747 5744 5714 5695 5680 5684 5696 5714 5728 5728 5728 5726 5724 5720 5718 5715 5711 5707 5702 5698 5693 5687 5682 5676 5671 5666 5661 5657 5652 5648 5644 5640 5637 5634 5631 5629 5629 5628 5627 5626 5626 5626 5626 5627 5627 5629 5630 5632
5771 5759 5734 5712 5690 5680 5685 5689 5694 5713 5717 5720 5719 5716 5714 5712 5709 5706 5701 5697 5692 5687 5682 5677 5671 5665 5660 5655 5650 5647 5642 5638 5634 5630 5626 5624 5622 5620 5619 5618 5617 5617 5617 5617 5617 5618 5620 5621 5623
5760 5753 5733 5713 5704 5683 5675 5686 5721 5719 5719 5715 5714 5713 5710 5708 5703 5700 5697 5693 5688 5683 5677 5671 5665 5659 5654 5649 5645 5640 5635 5631 5627 5622 5619 5616 5614 5612 5610 5609 5608 5608 5608 5608 5608 5609 5610 5612 5614
5763 5753 5735 5712 5705 5695 5682 5688 5732 5725 5720 5717 5714 5713 5710 5706 5701 5698 5694 5689 5683 5677 5672 5666 5661 5655 5650 5645 5639 5634 5629 5624 5619 5615 5612 5609 5606 5604 5602 5600 5599 5598 5598 5598 5598 5598 5600 5601 5603